Waarnemingen

Advertentie
Mijn weer
Dunkeswell Aerodrome, Groot Brittannië (3840): temperatuur & dauwpunt: 15.10.2017 07:00:00 - 21.10.2017 07:00:00 (BST)Dunkeswell Aerodrome, Groot Brittannië (3840): temperatuur -20cm & temperatuur -100cm: 15.10.2017 07:00:00 - 21.10.2017 07:00:00 (BST)Dunkeswell Aerodrome, Groot Brittannië (3840): windsnelheid & windstoten: 15.10.2017 07:00:00 - 21.10.2017 07:00:00 (BST)Dunkeswell Aerodrome, Groot Brittannië (3840): windrichting: 15.10.2017 07:00:00 - 21.10.2017 07:00:00 (BST)Dunkeswell Aerodrome, Groot Brittannië (3840): luchtdruk: 15.10.2017 07:00:00 - 21.10.2017 07:00:00 (BST)Dunkeswell Aerodrome, Groot Brittannië (3840): zicht: 15.10.2017 07:00:00 - 21.10.2017 07:00:00 (BST)Dunkeswell Aerodrome, Groot Brittannië (3840): neerslag: 15.10.2017 07:00:00 - 21.10.2017 07:00:00 (BST)
Datum & Tijd tt [°C] td [°C] tt -20cm [°C] tt -100cm [°C] ff [km/u] ff [kn] fx [km/u] fx [kn] dd ppp [hPa] vv [km] rr [mm]
21.10.2017 07:00:00 10,8 8,5 - - 35 19 57 31 ZW 999,8 12 -
21.10.2017 06:00:00 11,1 8,6 - - 31 17 54 29 ZZW 999,9 11 -
21.10.2017 05:00:00 11,3 9,1 - - 34 18 50 27 ZZW 1000,2 10 -
21.10.2017 04:00:00 11,5 10,3 - - 29 16 52 28 ZZW 1000,4 10 -
21.10.2017 03:00:00 11,9 11,9 - - 28 15 48 26 Z 1000,4 3,4 -
21.10.2017 02:00:00 11,7 11,7 - - 26 14 - - Z 1000,5 11 -
21.10.2017 01:00:00 11,7 11,1 - - 22 12 - - ZZW 1001,2 16 -
21.10.2017 00:00:00 11,9 11,8 - - 28 15 67 36 ZZW 1001,3 26 -
20.10.2017 23:00:00 13,6 13,6 - - 37 20 67 36 ZZW 1000,8 4,5 -
20.10.2017 22:00:00 13,1 13,1 - - 37 20 59 32 Z 1001,5 2,0 -
20.10.2017 21:00:00 12,5 12,5 - - 35 19 52 28 Z 1002,4 1,7 0,8
20.10.2017 20:00:00 12,3 11,3 - - 31 17 48 26 Z 1004,1 4,8 0,0
20.10.2017 19:00:00 12,2 10,6 - - 29 16 50 27 Z 1005,3 5 0,2
20.10.2017 18:00:00 12,2 10,2 - - 37 20 52 28 Z 1005,9 17 0,0
20.10.2017 17:00:00 11,8 9,6 - - 29 16 48 26 Z 1006,9 18 0,0
20.10.2017 16:00:00 11,9 8,6 - - 24 13 - - Z 1007,8 21 0,0
20.10.2017 15:00:00 12,2 7,4 - - 24 13 - - ZZW 1008,1 25 0,0
20.10.2017 14:00:00 11,5 6,9 - - 18 10 - - ZW 1008,6 26 0,0
20.10.2017 13:00:00 12,1 6,5 - - 21 11 - - WZW 1008,9 26 0,0
20.10.2017 12:00:00 11,3 6,2 - - 18 10 - - W 1008,8 23 0,0
20.10.2017 11:00:00 10,4 6,2 - - 18 10 - - W 1008,7 23 0,0
20.10.2017 10:00:00 9,6 7,0 13,7 14,0 24 13 - - W 1008,1 19 0,0
20.10.2017 09:00:00 8,8 6,6 - - 21 11 - - W 1007,2 18 0,0
20.10.2017 08:00:00 8,9 8,0 - - 21 11 - - W 1005,9 15 0,0
20.10.2017 07:00:00 8,7 8,7 - - 24 13 48 26 W 1004,3 4,0 0,2
20.10.2017 06:00:00 9,2 9,1 - - 24 13 46 25 W 1003,1 3,2 0,0
20.10.2017 05:00:00 9,4 9,4 - - 24 13 52 28 W 1001,6 3,1 0,4
20.10.2017 04:00:00 9,8 9,8 - - 28 15 52 28 W 1000,1 3,0 0,0
20.10.2017 03:00:00 10,1 10,1 - - 31 17 55 30 W 998,4 3,7 0,4
20.10.2017 02:00:00 10,5 10,5 - - 34 18 61 33 WZW 996,7 1,7 1,4
20.10.2017 01:00:00 10,3 10,3 - - 28 15 50 27 ZW 995,6 1,0 1,0
20.10.2017 00:00:00 10,4 10,3 - - 29 16 54 29 ZW 994,9 30 0,0
19.10.2017 23:00:00 10,5 10,5 - - 35 19 55 30 ZZW 994,9 27 0,0
19.10.2017 22:00:00 10,5 10,5 - - 34 18 50 27 ZZW 994,9 16 0,0
19.10.2017 21:00:00 10,6 10,6 - - 34 18 50 27 Z 995,1 6 0,0
19.10.2017 20:00:00 11,8 11,7 - - 34 18 74 40 ZZW 995,3 16 0,2
19.10.2017 19:00:00 13,1 13,1 - - 42 23 67 36 Z 994,6 4,1 2,6
19.10.2017 18:00:00 12,1 12,0 - - 31 17 55 30 ZZO 995,7 1,0 4,0
19.10.2017 17:00:00 12,6 12,6 - - 37 20 55 30 Z 997,1 1,5 1,2
19.10.2017 16:00:00 12,7 12,7 - - 31 17 48 26 Z 998,0 8 0,4
19.10.2017 15:00:00 12,8 12,8 - - 29 16 48 26 Z 999,3 10 0,0
19.10.2017 14:00:00 13,0 13,0 - - 24 13 - - Z 1000,0 10 0,0
19.10.2017 13:00:00 13,7 13,7 - - 22 12 - - Z 1000,8 5 0,0
19.10.2017 12:00:00 13,7 13,6 - - 24 13 - - Z 1001,6 4,3 1,6
19.10.2017 11:00:00 12,7 12,7 - - 13 7 - - ZZO 1002,4 2,1 1,2
19.10.2017 10:00:00 12,0 12,0 13,9 14,0 9 5 - - OZO 1003,4 1,1 0,0
19.10.2017 09:00:00 11,7 11,7 - - 11 6 - - ZZO 1004,2 0,6 0,0
19.10.2017 08:00:00 11,5 11,5 - - 11 6 - - ZZO 1004,1 0,3 0,0
19.10.2017 07:00:00 11,5 11,5 - - 18 10 - - ZO 1004,8 0,1 0,0
19.10.2017 06:00:00 11,5 11,5 - - 8 4 - - ZZO 1006,0 1,3 0,0
19.10.2017 05:00:00 10,8 10,8 - - 5 3 - - Z 1006,4 0,9 0,0
19.10.2017 04:00:00 11,7 11,6 - - 8 4 - - ZZO 1007,1 1,9 0,0
19.10.2017 03:00:00 11,7 11,6 - - 13 7 - - Z 1008,1 1,7 0,0
19.10.2017 02:00:00 11,7 11,6 - - 11 6 - - Z 1008,5 2,3 0,0
19.10.2017 01:00:00 11,2 11,2 - - 11 6 - - Z 1008,5 2,8 0,0
19.10.2017 00:00:00 11,2 11,2 - - 13 7 - - Z 1009,5 1,0 0,0
18.10.2017 23:00:00 11,2 11,2 - - 8 4 - - Z 1009,4 1,8 0,0
18.10.2017 22:00:00 11,1 11,1 - - 9 5 - - Z 1009,6 0,1 0,0
18.10.2017 21:00:00 11,0 11,0 - - 8 4 - - ZO 1009,9 0,1 0,0
18.10.2017 20:00:00 11,2 11,2 - - 5 3 - - ZZO 1010,1 0,4 0,0
18.10.2017 19:00:00 11,4 11,3 - - 4 2 - - ZW 1010,2 1,3 0,0
18.10.2017 18:00:00 11,6 11,6 - - 8 4 - - ZW 1010,0 3,2 0,0
18.10.2017 17:00:00 12,0 12,0 - - 8 4 - - ZZW 1009,7 6 0,0
18.10.2017 16:00:00 11,6 11,6 - - 4 2 - - NW 1009,8 0,1 0,0
18.10.2017 15:00:00 11,7 11,6 - - 5 3 - - Z 1010,0 0,2 0,2
18.10.2017 14:00:00 10,9 10,9 - - 5 3 - - ONO 1010,1 0,1 0,0
18.10.2017 13:00:00 10,9 10,8 - - 8 4 - - O 1010,6 0,2 0,0
18.10.2017 12:00:00 10,4 10,4 - - 9 5 - - ONO 1010,9 2,9 0,0
18.10.2017 11:00:00 10,2 10,2 - - 11 6 - - ONO 1010,9 2,7 0,0
18.10.2017 10:00:00 9,5 9,5 14,0 14,0 13 7 - - O 1011,4 2,2 0,0
18.10.2017 09:00:00 9,0 9,0 - - 18 10 - - O 1011,4 5 0,2
18.10.2017 08:00:00 8,9 8,9 - - 16 9 - - O 1011,4 7 0,0
18.10.2017 07:00:00 8,9 8,8 - - 18 10 - - ONO 1011,4 7 0,2
18.10.2017 06:00:00 8,7 8,7 - - 21 11 - - ONO 1011,9 7 0,0
18.10.2017 05:00:00 8,6 8,6 - - 21 11 - - ONO 1012,3 7 0,0
18.10.2017 04:00:00 8,5 8,5 - - 18 10 - - ONO 1012,8 8 0,0
18.10.2017 03:00:00 8,4 8,3 - - 13 7 - - NO 1013,7 13 0,0
18.10.2017 02:00:00 8,4 8,3 - - 15 8 - - NO 1014,2 11 0,0
18.10.2017 01:00:00 8,3 8,2 - - 15 8 - - ONO 1014,7 13 0,0
18.10.2017 00:00:00 8,3 8,0 - - 9 5 - - NO 1015,9 20 0,0
17.10.2017 23:00:00 8,4 8,1 - - 9 5 - - N 1016,7 9 0,8
17.10.2017 22:00:00 8,7 8,0 - - 4 2 - - O 1017,1 7 0,6
17.10.2017 21:00:00 9,0 7,5 - - 8 4 - - OZO 1016,7 7 0,2
17.10.2017 20:00:00 8,8 8,0 - - 8 4 - - OZO 1016,6 23 0,0
17.10.2017 19:00:00 9,0 8,3 - - 8 4 - - OZO 1016,7 16 0,0
17.10.2017 18:00:00 9,3 8,5 - - 8 4 - - ZO 1016,9 13 0,4
17.10.2017 17:00:00 9,9 8,8 - - 8 4 - - ZZO 1017,7 10 0,2
17.10.2017 16:00:00 10,6 8,4 - - 11 6 - - Z 1018,6 12 0,0
17.10.2017 15:00:00 11,0 8,6 - - 5 3 - - Z 1018,7 17 0,0
17.10.2017 14:00:00 11,4 8,9 - - 8 4 - - ZZW 1019,5 16 0,0
17.10.2017 13:00:00 - - - - - - - - - - - -
17.10.2017 12:00:00 11,5 8,4 - - 8 4 - - ZW 1020,7 17 0,0
17.10.2017 11:00:00 11,2 8,2 - - 9 5 - - WZW 1020,4 18 0,0
17.10.2017 10:00:00 10,5 8,3 14,7 14,2 9 5 - - ZW 1020,6 15 0,0
17.10.2017 09:00:00 9,2 8,1 - - 11 6 - - WZW 1020,3 14 0,0
17.10.2017 08:00:00 8,2 7,2 - - 9 5 - - ZW 1020,0 13 0,0
17.10.2017 07:00:00 8,2 7,5 - - 13 7 - - Z 1020,0 13 0,0
17.10.2017 06:00:00 8,6 6,9 - - 13 7 - - ZW 1019,3 15 0,0
17.10.2017 05:00:00 8,8 7,0 - - 21 11 - - ZW 1019,4 14 0,0
17.10.2017 04:00:00 9,4 7,4 - - 16 9 - - ZW 1019,6 14 0,0
17.10.2017 03:00:00 9,5 7,2 - - 15 8 - - ZW 1019,5 14 0,0
17.10.2017 02:00:00 10,3 7,4 - - 28 15 - - WZW 1019,3 15 0,0
17.10.2017 01:00:00 10,3 7,3 - - 13 7 - - ZW 1019,7 15 0,0
17.10.2017 00:00:00 10,8 6,9 - - 29 16 - - WZW 1018,9 16 0,0
16.10.2017 23:00:00 11,3 7,5 - - 26 14 - - WZW 1018,9 15 0,0
16.10.2017 22:00:00 11,7 7,3 - - 18 10 - - ZW 1018,5 14 0,0
16.10.2017 21:00:00 11,8 7,0 - - 22 12 - - ZW 1017,2 15 0,0
16.10.2017 20:00:00 12,4 7,8 - - 35 19 57 31 ZW 1016,2 8 0,0
16.10.2017 19:00:00 12,8 7,6 - - 34 18 61 33 ZW 1015,6 12 -
16.10.2017 18:00:00 13,2 7,7 - - 34 18 65 35 ZW 1014,6 12 0,0
16.10.2017 17:00:00 13,9 8,5 - - 31 17 63 34 ZW 1014,2 13 0,0
16.10.2017 16:00:00 14,3 8,3 - - 42 23 67 36 ZW 1013,8 13 0,0
16.10.2017 15:00:00 15,9 9,4 - - 34 18 68 37 ZW 1013,0 17 0,0
16.10.2017 14:00:00 16,2 10,3 - - 42 23 78 42 ZW 1012,7 15 0,0
16.10.2017 13:00:00 16,3 10,5 - - 41 22 70 38 ZZW 1012,3 11 0,0
16.10.2017 12:00:00 15,7 11,7 - - 41 22 65 35 ZZW 1011,7 12 0,0
16.10.2017 11:00:00 16,0 14,8 - - 31 17 50 27 ZZW 1011,2 7 0,0
16.10.2017 10:00:00 16,2 15,1 14,9 14,0 31 17 50 27 Z 1011,2 8 0,0
16.10.2017 09:00:00 16,4 15,0 - - 34 18 50 27 Z 1011,1 11 0,0
16.10.2017 08:00:00 16,8 15,3 - - 31 17 61 33 ZZO 1011,0 12 0,2
16.10.2017 07:00:00 15,8 15,6 - - 18 10 - - ZO 1010,9 8 0,0
16.10.2017 06:00:00 15,5 14,6 - - 18 10 - - ZO 1011,2 8 0,0
16.10.2017 05:00:00 16,4 14,7 - - 21 11 - - Z 1013,5 12 0,0
16.10.2017 04:00:00 16,0 14,9 - - 26 14 - - ZZO 1013,5 10 0,0
16.10.2017 03:00:00 15,2 15,1 - - 22 12 - - ZZO 1013,5 4,0 0,0
16.10.2017 02:00:00 14,7 14,7 - - 18 10 - - Z 1014,9 2,3 0,0
16.10.2017 01:00:00 14,8 14,7 - - 18 10 - - Z 1015,1 1,8 0,0
16.10.2017 00:00:00 15,0 14,9 - - 22 12 - - Z 1015,3 2,3 0,0
15.10.2017 23:00:00 14,7 14,7 - - 21 11 - - ZZW 1015,2 3,2 0,0
15.10.2017 22:00:00 14,1 14,1 - - 16 9 - - Z 1015,4 3,0 0,0
15.10.2017 21:00:00 14,4 14,4 - - 18 10 - - Z 1015,3 1,6 0,0
15.10.2017 20:00:00 14,6 14,5 - - 26 14 - - ZZO 1015,4 1,9 0,0
15.10.2017 19:00:00 13,4 13,3 - - 18 10 - - ZZO 1015,5 2,5 0,0
15.10.2017 18:00:00 13,8 13,3 - - 18 10 - - Z 1015,6 4,8 0,0
15.10.2017 17:00:00 14,0 12,9 - - 18 10 - - Z 1015,8 6 0,0
15.10.2017 16:00:00 14,5 12,4 - - 21 11 - - Z 1016,1 8 0,0
15.10.2017 15:00:00 15,3 12,8 - - 22 12 - - Z 1016,5 10 0,0
15.10.2017 14:00:00 14,8 12,3 - - 29 16 - - Z 1016,7 11 0,0
15.10.2017 13:00:00 14,2 12,1 - - 22 12 - - ZZW 1017,0 10 0,0
15.10.2017 12:00:00 13,6 12,1 - - 28 15 - - ZZW 1017,3 9 0,0
15.10.2017 11:00:00 13,2 12,3 - - 24 13 - - ZZW 1017,5 6 0,0
15.10.2017 10:00:00 13,2 12,4 14,9 14,0 15 8 - - ZZW 1017,6 7 0,0
15.10.2017 09:00:00 13,0 12,2 - - 18 10 - - ZZW 1017,5 11 0,0
15.10.2017 08:00:00 13,3 13,2 - - 18 10 - - ZZW 1017,1 12 0,0
15.10.2017 07:00:00 13,3 13,3 - - 22 12 - - ZW 1017,1 7 0,0

tt = temperatuur
td = dauwpunt
tt -20cm = temperatuur -20cm
tt -100cm = temperatuur -100cm
ff = windsnelheid
fx = windstoten
dd = windrichting
ppp = luchtdruk
vv = zicht
rr = neerslag

Weerstations in de omgeving